Content
SEND FEEDBACK

Daily
Averages
Monthly
Summary
United States of America

GOLFVIEW, FLORIDA


Home > North America > United States > Florida
Elevation: 20 feet     Latitude: 26 40N     Longitude: 080 07W

WEATHER
 
SELECT A DAY
Number of Records: 193,374;   Date Range: 1/1/95 - 10/19/14
 
SHARE

PRINT THIS DATA

[ ← Previous Day ]
WEATHER ALMANAC - JANUARY 3, 2013
[ Next Day → ]
[ °C ]   °F
Weather ElementAverageHighLow
Temperature73.7 °F80.1 °F (11:53 am)66 °F (5:53 am)
Dewpoint64.9 °F66.9 °F (1:53 pm)63 °F (4:53 am)
Humidity74.8 %90 % (1:53 am)60 % (11:53 am)
Barometer30.08 in30.13 in (9:53 pm)30.03 in (1:53 pm)
Wind Speed5 mph11.5 mph (2:53 pm)
Weather ElementAverage
Visibility10 mi
Wind DirectionESE (125.2 °)

Weather ElementTotal
Precipitation---
Cooling Degree Days8.1 (Base 65)
Growing Degree Days23.1 (Base 50)
Averaged from 25 records on January 3, 2013
WEATHER CONDITIONS BREAKOUT
WIND DIRECTION BREAKOUT
WEATHER BY HOUR - JANUARY 3, 2013
[ °C ]   °F
Local TimeTemperatureDewpointHumidityBarometerVisibilityWind DirectionWind SpeedGust SpeedPrecipitationEventsConditions
1:53 AM66.9 °F64.0 °F90 %30.05 in10.0 miCalmScattered Clouds
2:53 AM66.9 °F64.0 °F90 %30.05 in10.0 miCalmOvercast
3:53 AM66.9 °F64.0 °F90 %30.04 in10.0 miWest (280°)3.5 mphOvercast
4:53 AM66.9 °F63.0 °F87 %30.04 in10.0 miCalmMostly Cloudy
5:53 AM66.0 °F63.0 °F90 %30.05 in10.0 miWest (280°)6.9 mphMostly Cloudy
6:53 AM68.0 °F64.0 °F87 %30.07 in10.0 miCalmMostly Cloudy
7:53 AM68.0 °F63.0 °F84 %30.09 in10.0 miCalmScattered Clouds
8:53 AM73.0 °F64.0 °F73 %30.10 in10.0 miCalmScattered Clouds
9:53 AM75.9 °F64.0 °F67 %30.11 in10.0 miCalmScattered Clouds
10:53 AM77.0 °F64.9 °F66 %30.11 in10.0 miSSE (160°)8.1 mphMostly Cloudy
11:41 AM78.8 °F66.2 °F65 %30.09 in10.0 miSouth (190°)5.8 mphMostly Cloudy
11:53 AM80.1 °F64.9 °F60 %30.08 in10.0 miSSW (210°)8.1 mphMostly Cloudy
12:33 PM78.8 °F66.2 °F65 %30.06 in10.0 miSouth (170°)4.6 mphMostly Cloudy
12:53 PM78.1 °F66.0 °F66 %30.05 in10.0 miSSE (160°)9.2 mphMostly Cloudy
1:53 PM80.1 °F66.9 °F64 %30.03 in10.0 miSSE (150°)10.4 mphMostly Cloudy
2:53 PM80.1 °F64.9 °F60 %30.03 in10.0 miSSE (150°)11.5 mphMostly Cloudy
3:53 PM80.1 °F64.9 °F60 %30.04 in10.0 miSSE (150°)10.4 mphScattered Clouds
4:53 PM78.1 °F64.0 °F62 %30.06 in10.0 miSSE (160°)9.2 mphScattered Clouds
5:53 PM77.0 °F64.0 °F64 %30.07 in10.0 miSSE (160°)8.1 mphMostly Cloudy
6:53 PM75.0 °F64.9 °F71 %30.08 in10.0 miSSE (160°)9.2 mphScattered Clouds
7:53 PM75.0 °F66.9 °F76 %30.11 in10.0 miSouth (170°)5.8 mphMostly Cloudy
8:53 PM73.9 °F66.9 °F79 %30.12 in10.0 miSouth (170°)4.6 mphPartly Cloudy
9:53 PM72.0 °F66.9 °F84 %30.13 in10.0 miSW (230°)3.5 mphScattered Clouds
10:53 PM72.0 °F66.9 °F84 %30.12 in10.0 miSouth (180°)5.8 mphPartly Cloudy
11:53 PM69.1 °F64.9 °F87 %30.13 in10.0 miCalmPartly Cloudy
Hourly data recorded from KPBI, located miles away from Golfview, Florida







STORIES FROM OUR PARTNERS